Hourly Data Report for August 01, 2020

LYTTON RCS
BRITISH COLUMBIA
Current Station Operator: ECCC - MSC

50°13'28.000" N
121°34'55.000" W
225.00 m
1114746
71765
VLY

Download Data

Hourly Data (August 2020)
Hourly Data Report for August 1, 2020
TIME Temp Definition
°C
Dew Point Definition
°C
Rel Hum Definition
%
Wind Dir Definition
10's deg

Wind Spd Definition
km/h
Visibility Definition
km
Stn Press Definition
kPa
Hmdx Definition


Wind Chill Definition


Weather Definition


00:00 24.4 11.7 45 18 32   98.62 27   LegendNANA
01:00 23.7 11.6 47 19 34   98.67 26   LegendNANA
02:00 23.2 11.1 47 19 31   98.72 25   LegendNANA
03:00 21.8 11.2 51 18 39   98.77     LegendNANA
04:00 21.1 10.9 52 19 21   98.84     LegendNANA
05:00 20.6 10.9 54 19 24   98.88     LegendNANA
06:00 20.3 10.9 55 18 26   98.92     LegendNANA
07:00 20.4 11.1 55 18 30   98.94     LegendNANA
08:00 22.4 10.6 47 17 31   98.92     LegendNANA
09:00 25.0 10.2 39 18 25   98.91 26   LegendNANA
10:00 26.5 9.4 34 18 34   98.84 28   LegendNANA
11:00 28.7 9.4 30 18 37   98.77 30   LegendNANA
12:00 30.7 9.7 27 20 25   98.68 32   LegendNANA
13:00 32.1 8.7 24 19 26   98.62 33   LegendNANA
14:00 34.0 7.1 19 19 26   98.58 34   LegendNANA
15:00 34.1 6.3 18 19 26   98.52 34   LegendNANA
16:00 33.8 4.6 16 19 26   98.47 33   LegendNANA
17:00 32.5 6.5 20 19 23   98.43 32   LegendNANA
18:00 30.3 7.7 24 19 23   98.46 31   LegendNANA
19:00 28.6 9.8 31 19 26   98.50 30   LegendNANA
20:00 27.2 10.7 36 19 27   98.54 29   LegendNANA
21:00 26.2 10.8 38 20 24   98.59 28   LegendNANA
22:00 24.8 11.9 44 19 32   98.64 27   LegendNANA
23:00 23.6 12.0 48 19 30   98.69 26   LegendNANA

Notes on Data Quality.

Legend

  • E = Estimated
  • M = Missing
  • NA = Not Available*
  • [empty] = Indicates an unobserved value
Date modified: